Weather History for KBMQ - January, 2012

Change the Weather History Date:

Saturday, January 21, 2012

  Actual Average Record
Temperature  
Mean Temperature 50 °F -  
Max Temperature 62 °F 58 °F 82 °F (2003)
Min Temperature 39 °F 37 °F 21 °F (2011)
Degree Days  
Heating Degree Days 14    
Moisture  
Dew Point 35 °F    
Average Humidity 58    
Maximum Humidity 90    
Minimum Humidity 38    
Precipitation  
Precipitation 0.00 in - - ()
Sea Level Pressure  
Sea Level Pressure 29.98 in    
Wind  
Wind Speed 6 mph (North)    
Max Wind Speed 10 mph    
Max Gust Speed 17 mph    
Visibility 9 miles    
Events      
Averages and records for this station are not official NWS values.
T = Trace of Precipitation, MM = Missing Value Source: NWS Daily Summary

Daily Weather History Graph

Daily Weather History Graph

Search for Another Location

Airport or City:

Trip Planner

Search our weather history database for the weather conditions in past years. The results will help you decide how hot, cold, wet, or windy it might be!

Date:

Astronomy

Jan. 21, 2012 Rise Set
Actual Time 7:29 AM CST 5:58 PM CST
Civil Twilight 7:03 AM CST 6:24 PM CST
Nautical Twilight 6:34 AM CST 6:54 PM CST
Astronomical Twilight 6:05 AM CST 7:22 PM CST
Moon 5:58 AM CST (1/21) 4:38 PM CST (1/21)
Length of Visible Light 11h 20m
Length of Day
10h 29m
Waning Crescent, 3% of the Moon is Illuminated
Jan 21
Waning Crescent
Jan 23
New
Jan 30
First Quarter
Feb 7
Full
Feb 14
Last Quarter

Hourly Weather History & Observations

Time (CST) Temp. Windchill Dew Point Humidity Pressure Visibility Wind Dir Wind Speed Gust Speed Precip Events Conditions
12:53 AM 55.9 °F - 53.1 °F 90% 29.86 in 6.0 mi Calm Calm - N/A   Clear
2:53 AM 51.1 °F - 39.0 °F 63% 29.92 in 10.0 mi North 9.2 mph - N/A   Clear
3:53 AM 46.9 °F - 34.0 °F 61% 29.96 in 10.0 mi North 8.1 mph - N/A   Clear
4:53 AM 44.1 °F 40.1 °F 32.0 °F 63% 29.97 in 10.0 mi NNW 6.9 mph - N/A   Clear
5:53 AM 42.1 °F 36.1 °F 30.0 °F 62% 29.99 in 9.0 mi NNW 10.4 mph - N/A   Clear
7:53 AM 39.0 °F 34.0 °F 28.9 °F 67% 30.04 in 8.0 mi North 6.9 mph - N/A   Clear
8:53 AM 41.0 °F 35.2 °F 28.9 °F 62% 30.05 in 8.0 mi North 9.2 mph 17.3 mph N/A   Clear
9:22 AM 41.0 °F 35.8 °F 28.4 °F 61% 30.08 in 8.0 mi North 8.1 mph - N/A   Mostly Cloudy
9:53 AM 42.1 °F 36.6 °F 30.9 °F 65% 30.09 in 8.0 mi North 9.2 mph - N/A   Overcast
10:53 AM 46.9 °F - 32.0 °F 56% 30.08 in 8.0 mi North 8.1 mph - N/A   Mostly Cloudy
11:04 AM 48.2 °F - 32.0 °F 54% 30.09 in 8.0 mi NNW 9.2 mph - N/A   Scattered Clouds
11:53 AM 52.0 °F - 33.1 °F 49% 30.05 in 9.0 mi Variable 5.8 mph - N/A   Clear
12:53 PM 55.0 °F - 33.1 °F 43% 30.00 in 9.0 mi NW 6.9 mph - N/A   Clear
1:53 PM 55.9 °F - 34.0 °F 44% 29.98 in 10.0 mi West 8.1 mph - N/A   Clear
2:53 PM 59.0 °F - 35.1 °F 41% 29.95 in 10.0 mi West 3.5 mph - N/A   Clear
3:53 PM 62.1 °F - 36.0 °F 38% 29.93 in 10.0 mi NNE 3.5 mph - N/A   Clear
4:53 PM 59.0 °F - 36.0 °F 42% 29.93 in 10.0 mi South 4.6 mph - N/A   Clear
5:53 PM 57.0 °F - 37.9 °F 49% 29.93 in 10.0 mi ESE 3.5 mph - N/A   Clear
6:53 PM 53.1 °F - 37.9 °F 57% 29.94 in 10.0 mi Calm Calm - N/A   Clear
7:53 PM 52.0 °F - 39.0 °F 61% 29.92 in 10.0 mi Calm Calm - N/A   Clear
8:53 PM 50.0 °F - 39.0 °F 66% 29.92 in 10.0 mi ESE 3.5 mph - N/A   Clear
10:53 PM 46.9 °F - 39.0 °F 74% 29.89 in 9.0 mi Calm Calm - N/A   Clear
11:53 PM 46.9 °F - 39.0 °F 74% 29.86 in 8.0 mi SSE 5.8 mph - N/A   Clear